Zurück zum Katalog

STARLINK-34400

AktivKommunikationVLEO
NORAD 64463·PAYLOAD·🇺🇸 United States

Gestartet Jun 18, 2025 von Cape Canaveral Space Force Station

Loading…

Nächste Überflüge (nächste 24 Stunden)

TLE

AktuellSource: CelesTrak SupGP

Epoche: Sep 14, 2026, 22:55 UTC

1 64463C 25130AB  26257.95534722  .00050536  00000+0  16257-2 0  2571
2 64463  53.1575 290.8719 0001099  87.5014 139.3969 15.31666222    16

Verfolge STARLINK-34400 in Echtzeit mit AllMySat

Download on the App Store